Home   Weather   Solothurn   Past weeks

Flag for Switzerland Past Weather in Solothurn, Solothurn, Switzerland — Yesterday and Last 2 Weeks

Now
38 °F

Chilly.


Feels Like: 35 °F
Forecast: 31 / 49 °F
Wind: 5 mph from Southwest

Location: Grenchen

Current Time: Feb 19, 2017 at 3:18:20 pm

Latest Report: Feb 19, 2017 at 2:00 pm


Visibility: N/A

Pressure: 30.33 "Hg

Humidity: 98%

Dew Point: 38 °F

Location of SolothurnLocation

Past Weather in Solothurn — Graph

°F

Solothurn Temperature Yesterday

Maximum temperature yesterday: 43 °F (at 4:00 pm)
Minimum temperature yesterday: 28 °F (at 11:00 pm)
Average temperature yesterday: 35 °F

High & Low Weather Summary for the Past Weeks

 TemperatureHumidityPressure
High53 °F (Feb 16, 4:00 pm)100% (Feb 5, 4:00 am)30.70 "Hg (Feb 5, 4:00 am)
Low25 °F (Feb 15, 4:00 am)55% (Feb 16, 4:00 pm)29.65 "Hg (Feb 4, 2:00 pm)
Average35 °F91%30.24 "Hg
* Reported Feb 4 1:00 pm — Feb 19 1:00 pm, Solothurn, Weather by CustomWeather, © 2017

Note: Actual official high and low records may vary slightly from our data, if they occured in-between our weather recording intervals... More about our weather records

Advertising

Solothurn Weather History for the Previous 24 Hours

Scroll right to see more
 ConditionsComfort  
Time TempWeatherWind HumidityBarometerVisibility
1:00 pm
Sun, Feb 19
36 °FChilly.7 mph99%30.37 "HgN/A
12:00 pm33 °FChilly.6 mph99%30.40 "HgN/A
11:00 am32 °FChilly.5 mph99%30.40 "HgN/A
10:00 am32 °FChilly.5 mph99%30.40 "HgN/A
9:00 am31 °FChilly.3 mph99%30.40 "HgN/A
8:00 am31 °FChilly.2 mph100%30.39 "HgN/A
7:00 am30 °FChilly.2 mph99%30.38 "HgN/A
6:00 am30 °FChilly.2 mph100%30.38 "HgN/A
5:00 am30 °FChilly.1 mph99%30.38 "HgN/A
4:00 am29 °FChilly.1 mph99%30.38 "HgN/A
3:00 am29 °FChilly.1 mph99%30.39 "HgN/A
2:00 am28 °FChilly.1 mph100%30.38 "HgN/A
1:00 am26 °FChilly.No wind99%30.39 "HgN/A
12:00 am27 °FChilly.3 mph99%30.38 "HgN/A
11:00 pm
Sat, Feb 18
28 °FChilly.No wind99%30.37 "HgN/A
10:00 pm29 °FChilly.No wind98%30.36 "HgN/A
9:00 pm32 °FChilly.1 mph97%30.35 "HgN/A
8:00 pm32 °FChilly.2 mph96%30.35 "HgN/A
7:00 pm37 °FChilly.2 mph91%30.33 "HgN/A
6:00 pm40 °FChilly.5 mph85%30.32 "HgN/A
5:00 pm43 °FQuite cool.10 mph79%30.29 "HgN/A
4:00 pm43 °FQuite cool.10 mph80%30.29 "HgN/A
3:00 pm42 °FQuite cool.12 mph84%30.30 "HgN/A
Weather by CustomWeather, © 2017

See weather overviewHow to use our weather pages